Location: Cheyres
(46.8153°N, 6.7877°E)
Time: 11:46:50
(UTC+00:00)

Gbstr 26 Del rocket - Pass Details

Date: 26 September 2021
Orbit: 492 x 1263 km, 51.8° (Epoch: 18 October)

Event Time Altitude Azimuth Distance (km) Brightness Sun altitude
Rises 17:40:35 0° 170° (S) 3,771 7.0 -4.0°
Reaches altitude 10° 17:44:37 10° 147° (SSE) 2,972 6.2 -4.6°
Maximum altitude 17:48:08 14° 118° (ESE) 2,772 5.8 -5.2°
Drops below altitude 10° 17:51:50 10° 90° (E) 3,169 6.0 -5.9°
Enters shadow 17:53:59 - 78° (ENE) 3,608 6.3 -6.2°
